Radiation Dose at Monitoring Post of Fukushima Daini Nuclear Power Station
Date,Time,MP-1(microSv/h),MP-2(microSv/h),MP-3(microSv/h),MP-4(microSv/h),MP-5(microSv/h),MP-6(microSv/h),MP-7(microSv/h),Wind Direction,Wind Velocity(m/s),Rain
2023/01/27,00:00,0.155,0.140,0.216,0.212,0.212,0.122,0.078,west-northwest,3.6,No
2023/01/27,00:10,0.155,0.140,0.217,0.212,0.212,0.122,0.078,west-northwest,3.3,No
2023/01/27,00:20,0.155,0.140,0.216,0.212,0.212,0.122,0.079,west-northwest,3.9,No
2023/01/27,00:30,0.155,0.140,0.216,0.212,0.211,0.123,0.078,northwest,5.1,No
2023/01/27,00:40,0.155,0.139,0.216,0.211,0.212,0.122,0.078,northwest,5.4,No
2023/01/27,00:50,0.154,0.140,0.217,0.212,0.213,0.122,0.078,northwest,5.2,No
2023/01/27,01:00,0.155,0.140,0.216,0.212,0.212,0.122,0.078,northwest,5.5,No
2023/01/27,01:10,0.155,0.140,0.214,0.211,0.212,0.122,0.079,west-northwest,6.4,No
2023/01/27,01:20,0.155,0.141,0.216,0.213,0.211,0.122,0.078,west-northwest,5.2,No
2023/01/27,01:30,0.156,0.140,0.216,0.212,0.211,0.122,0.079,west-northwest,4.8,No
2023/01/27,01:40,0.155,0.140,0.215,0.212,0.213,0.123,0.078,west,3.9,No
2023/01/27,01:50,0.154,0.140,0.217,0.213,0.211,0.122,0.078,west,2.8,No
2023/01/27,02:00,0.155,0.140,0.217,0.212,0.212,0.122,0.078,west,4.6,No
2023/01/27,02:10,0.155,0.140,0.216,0.211,0.211,0.123,0.078,west,5.3,No
2023/01/27,02:20,0.155,0.141,0.217,0.212,0.212,0.122,0.078,west,5.2,No
2023/01/27,02:30,0.155,0.141,0.215,0.213,0.212,0.123,0.078,west-northwest,4.8,No
2023/01/27,02:40,0.155,0.140,0.216,0.213,0.212,0.123,0.078,west,5.7,No
2023/01/27,02:50,0.156,0.141,0.216,0.213,0.212,0.123,0.078,west,6.2,No
2023/01/27,03:00,0.155,0.141,0.216,0.212,0.212,0.123,0.078,west,5.8,No
2023/01/27,03:10,0.155,0.141,0.215,0.213,0.211,0.122,0.079,west-northwest,5.3,No
2023/01/27,03:20,0.156,0.140,0.216,0.212,0.211,0.122,0.078,west,7.9,No
2023/01/27,03:30,0.154,0.141,0.214,0.212,0.212,0.122,0.079,west,7.8,No
2023/01/27,03:40,0.155,0.141,0.216,0.212,0.213,0.123,0.079,west,7.4,No
2023/01/27,03:50,0.155,0.140,0.215,0.213,0.212,0.123,0.078,west-northwest,6.0,No
2023/01/27,04:00,0.155,0.141,0.216,0.212,0.211,0.122,0.078,west,5.2,No
2023/01/27,04:10,0.154,0.140,0.216,0.212,0.211,0.123,0.078,west,5.0,No
2023/01/27,04:20,0.154,0.140,0.216,0.211,0.211,0.122,0.078,west-northwest,5.2,No
2023/01/27,04:30,0.156,0.140,0.215,0.212,0.211,0.122,0.078,west-northwest,4.7,No
2023/01/27,04:40,0.154,0.140,0.215,0.210,0.212,0.123,0.078,west-northwest,4.9,No
2023/01/27,04:50,0.155,0.140,0.215,0.212,0.211,0.122,0.078,west-northwest,4.6,No
2023/01/27,05:00,0.155,0.140,0.214,0.212,0.212,0.122,0.078,west-northwest,5.2,No
2023/01/27,05:10,0.155,0.140,0.215,0.213,0.212,0.122,0.078,northwest,4.2,No
2023/01/27,05:20,0.155,0.140,0.217,0.212,0.212,0.122,0.079,northwest,4.2,No
2023/01/27,05:30,0.155,0.140,0.215,0.211,0.212,0.122,0.078,northwest,4.7,No
2023/01/27,05:40,0.155,0.140,0.215,0.213,0.211,0.123,0.079,west-northwest,7.3,No
2023/01/27,05:50,0.155,0.141,0.216,0.212,0.211,0.122,0.078,west-northwest,9.8,No
2023/01/27,06:00,0.155,0.139,0.216,0.213,0.211,0.122,0.078,west-northwest,10.9,No
2023/01/27,06:10,0.155,0.141,0.216,0.212,0.212,0.123,0.078,northwest,12.2,No
2023/01/27,06:20,0.156,0.141,0.215,0.212,0.212,0.122,0.078,west-northwest,11.2,No
2023/01/27,06:30,0.156,0.140,0.216,0.212,0.213,0.123,0.078,west-northwest,10.0,No
2023/01/27,06:40,0.155,0.141,0.216,0.212,0.211,0.122,0.078,northwest,9.2,No
2023/01/27,06:50,0.155,0.140,0.216,0.212,0.211,0.123,0.078,west-northwest,4.3,No
2023/01/27,07:00,0.154,0.141,0.215,0.213,0.211,0.123,0.078,southwest,1.1,No
2023/01/27,07:10,0.155,0.141,0.215,0.212,0.212,0.123,0.078,west,3.9,No
2023/01/27,07:20,0.155,0.141,0.215,0.213,0.211,0.121,0.078,west-southwest,3.2,No
2023/01/27,07:30,0.154,0.140,0.215,0.211,0.212,0.122,0.079,west,3.5,No
2023/01/27,07:40,0.154,0.139,0.217,0.212,0.211,0.122,0.078,west,4.6,No
2023/01/27,07:50,0.154,0.140,0.216,0.212,0.212,0.123,0.078,west,2.6,No
2023/01/27,08:00,0.155,0.140,0.216,0.212,0.212,0.122,0.079,southwest,1.7,No
2023/01/27,08:10,0.155,0.140,0.215,0.212,0.212,0.123,0.079,west,1.8,No
2023/01/27,08:20,0.156,0.140,0.216,0.212,0.211,0.122,0.079,west-northwest,1.0,No
2023/01/27,08:30,0.155,0.140,0.215,0.213,0.213,0.123,0.079,northwest,0.8,No
2023/01/27,08:40,0.156,0.140,0.216,0.212,0.212,0.123,0.079,west-northwest,1.7,No
2023/01/27,08:50,0.155,0.140,0.217,0.212,0.211,0.122,0.079,west,2.7,No
2023/01/27,09:00,0.155,0.140,0.217,0.212,0.212,0.122,0.079,west,2.2,No
2023/01/27,09:10,0.155,0.140,0.215,0.213,0.211,0.123,0.078,west,1.2,No
2023/01/27,09:20,0.154,0.141,0.215,0.212,0.212,0.122,0.078,west,1.2,No
2023/01/27,09:30,0.155,0.139,0.216,0.212,0.212,0.122,0.078,west-northwest,0.7,No
2023/01/27,09:40,0.155,0.139,0.216,0.211,0.213,0.122,0.078,northwest,0.9,No
2023/01/27,09:50,0.155,0.140,0.216,0.212,0.212,0.123,0.079,north-northwest,0.6,No
2023/01/27,10:00,0.155,0.140,0.217,0.212,0.212,0.123,0.079,north-northeast,1.0,No
2023/01/27,10:10,0.155,0.140,0.214,0.212,0.212,0.123,0.078,north-northeast,1.2,No
2023/01/27,10:20,0.155,0.139,0.215,0.212,0.213,0.122,0.078,north-northwest,1.4,No
2023/01/27,10:30,0.154,0.140,0.217,0.211,0.212,0.123,0.078,north,1.8,No
2023/01/27,10:40,0.155,0.140,0.216,0.214,0.211,0.123,0.079,north-northeast,1.5,No
2023/01/27,10:50,0.155,0.141,0.215,0.212,0.212,0.123,0.078,north-northwest,2.5,No
2023/01/27,11:00,0.154,0.140,0.216,0.212,0.212,0.123,0.079,north,2.7,No
2023/01/27,11:10,0.155,0.140,0.216,0.212,0.213,0.123,0.078,north,3.0,No
2023/01/27,11:20,0.155,0.141,0.215,0.212,0.212,0.122,0.078,north,1.9,No
2023/01/27,11:30,0.155,0.140,0.216,0.212,0.211,0.123,0.078,north,2.1,No
2023/01/27,11:40,0.155,0.140,0.216,0.212,0.212,0.124,0.079,north-northeast,1.7,No
2023/01/27,11:50,0.155,0.140,0.216,0.212,0.212,0.122,0.078,northeast,1.4,No
2023/01/27,12:00,0.156,0.141,0.216,0.212,0.213,0.123,0.078,north-northeast,0.8,No
2023/01/27,12:10,0.156,0.141,0.216,0.212,0.212,0.123,0.079,northeast,1.3,No
2023/01/27,12:20,0.155,0.140,0.216,0.213,0.211,0.123,0.078,north-northeast,1.8,No
2023/01/27,12:30,0.155,0.140,0.216,0.213,0.212,0.124,0.079,north-northeast,2.3,No
2023/01/27,12:40,0.156,0.140,0.216,0.213,0.213,0.124,0.079,northeast,2.8,No
2023/01/27,12:50,0.155,0.141,0.215,0.213,0.213,0.123,0.079,north-northeast,2.3,No
2023/01/27,13:00,0.154,0.141,0.216,0.212,0.212,0.123,0.079,north-northeast,1.6,No
2023/01/27,13:10,0.155,0.141,0.217,0.214,0.213,0.123,0.079,north-northeast,1.9,No
2023/01/27,13:20,0.155,0.140,0.216,0.212,0.212,0.124,0.079,north-northeast,1.7,No
2023/01/27,13:30,0.155,0.141,0.217,0.212,0.212,0.124,0.078,east-northeast,2.7,No
2023/01/27,13:40,0.155,0.140,0.217,0.212,0.213,0.123,0.078,north-northeast,0.9,No
2023/01/27,13:50,0.155,0.141,0.216,0.213,0.211,0.123,0.078,northeast,2.1,No
2023/01/27,14:00,0.154,0.140,0.216,0.213,0.212,0.123,0.079,northeast,1.8,No
2023/01/27,14:10,0.155,0.140,0.216,0.213,0.212,0.123,0.078,north,2.3,No
2023/01/27,14:20,0.155,0.141,0.216,0.214,0.213,0.123,0.078,northwest,2.7,No
2023/01/27,14:30,0.155,0.139,0.216,0.214,0.213,0.123,0.078,north-northwest,2.3,No
2023/01/27,14:40,0.155,0.140,0.216,0.214,0.211,0.122,0.079,north-northwest,2.9,No
2023/01/27,14:50,0.155,0.140,0.216,0.213,0.212,0.123,0.078,northwest,3.1,No
2023/01/27,15:00,0.154,0.140,0.216,0.212,0.212,0.124,0.078,northwest,2.8,No
2023/01/27,15:10,0.155,0.141,0.216,0.212,0.212,0.123,0.078,northwest,3.2,No
2023/01/27,15:20,0.155,0.141,0.216,0.212,0.212,0.124,0.079,northwest,2.8,Yes
2023/01/27,15:30,0.156,0.140,0.216,0.213,0.213,0.123,0.079,northwest,2.5,Yes
2023/01/27,15:40,0.155,0.140,0.216,0.213,0.213,0.123,0.078,northwest,2.6,Yes
2023/01/27,15:50,0.157,0.141,0.216,0.214,0.213,0.124,0.079,northwest,2.4,Yes
2023/01/27,16:00,0.157,0.141,0.218,0.214,0.213,0.124,0.080,north-northwest,2.9,Yes
2023/01/27,16:10,0.156,0.142,0.218,0.213,0.214,0.125,0.080,north-northwest,3.5,Yes
2023/01/27,16:20,0.158,0.143,0.218,0.214,0.215,0.125,0.080,northwest,4.3,Yes
2023/01/27,16:30,0.158,0.145,0.220,0.215,0.214,0.126,0.081,north-northwest,5.4,Yes
2023/01/27,16:40,0.159,0.144,0.219,0.217,0.216,0.127,0.082,northwest,5.5,Yes
2023/01/27,16:50,0.159,0.144,0.220,0.215,0.215,0.127,0.082,northwest,5.3,Yes
2023/01/27,17:00,0.159,0.144,0.220,0.217,0.215,0.128,0.082,northwest,5.2,Yes
2023/01/27,17:10,0.158,0.144,0.220,0.216,0.215,0.127,0.082,northwest,6.5,Yes
2023/01/27,17:20,0.158,0.144,0.219,0.216,0.214,0.126,0.081,northwest,7.3,Yes
2023/01/27,17:30,0.158,0.143,0.219,0.216,0.214,0.125,0.081,northwest,7.5,Yes
2023/01/27,17:40,0.158,0.143,0.218,0.215,0.215,0.126,0.081,northwest,8.7,Yes
2023/01/27,17:50,0.157,0.143,0.219,0.215,0.215,0.126,0.082,northwest,8.1,Yes
2023/01/27,18:00,0.157,0.142,0.217,0.215,0.214,0.126,0.080,northwest,7.9,Yes
2023/01/27,18:10,0.157,0.143,0.218,0.214,0.212,0.125,0.080,northwest,7.8,Yes
2023/01/27,18:20,0.157,0.141,0.217,0.214,0.213,0.124,0.080,northwest,9.5,Yes
2023/01/27,18:30,0.156,0.142,0.217,0.214,0.213,0.124,0.080,northwest,10.1,Yes
2023/01/27,18:40,0.157,0.142,0.218,0.213,0.213,0.124,0.079,northwest,9.3,Yes
2023/01/27,18:50,0.156,0.143,0.217,0.215,0.213,0.126,0.081,northwest,10.1,Yes
2023/01/27,19:00,0.158,0.143,0.218,0.215,0.213,0.126,0.082,northwest,9.8,Yes
2023/01/27,19:10,0.157,0.142,0.218,0.214,0.213,0.126,0.081,northwest,8.8,Yes
2023/01/27,19:20,0.157,0.142,0.218,0.214,0.214,0.126,0.081,northwest,9.2,Yes
2023/01/27,19:30,0.157,0.142,0.217,0.214,0.214,0.127,0.082,northwest,10.6,Yes
2023/01/27,19:40,0.158,0.143,0.218,0.214,0.213,0.126,0.082,north-northwest,10.6,Yes
2023/01/27,19:50,0.156,0.142,0.217,0.214,0.213,0.126,0.082,northwest,9.3,Yes
2023/01/27,20:00,0.156,0.143,0.217,0.213,0.213,0.126,0.081,northwest,11.2,Yes
2023/01/27,20:10,0.157,0.143,0.216,0.214,0.212,0.127,0.082,northwest,11.1,Yes
2023/01/27,20:20,0.156,0.142,0.216,0.212,0.212,0.127,0.082,northwest,9.8,Yes
2023/01/27,20:30,0.156,0.142,0.216,0.212,0.212,0.126,0.081,northwest,7.6,Yes
2023/01/27,20:40,0.156,0.143,0.216,0.211,0.212,0.126,0.082,north-northwest,11.2,Yes
2023/01/27,20:50,0.156,0.142,0.216,0.212,0.212,0.125,0.080,north-northwest,12.6,Yes
2023/01/27,21:00,0.157,0.141,0.216,0.210,0.212,0.125,0.081,northwest,10.6,Yes
2023/01/27,21:10,0.154,0.141,0.215,0.211,0.210,0.124,0.081,northwest,12.0,Yes
2023/01/27,21:20,0.156,0.141,0.215,0.211,0.211,0.125,0.081,northwest,12.3,Yes
2023/01/27,21:30,0.155,0.141,0.214,0.210,0.210,0.125,0.080,north-northwest,11.7,Yes
2023/01/27,21:40,0.155,0.140,0.214,0.211,0.211,0.124,0.080,north-northwest,11.1,Yes
2023/01/27,21:50,0.155,0.141,0.214,0.210,0.210,0.124,0.079,north-northwest,11.7,Yes
2023/01/27,22:00,0.155,0.141,0.214,0.211,0.211,0.124,0.079,north-northwest,11.2,Yes
2023/01/27,22:10,0.156,0.141,0.215,0.211,0.211,0.125,0.081,north-northwest,12.8,Yes
2023/01/27,22:20,0.156,0.142,0.215,0.212,0.212,0.126,0.081,north-northwest,11.2,Yes
2023/01/27,22:30,0.157,0.142,0.216,0.212,0.211,0.126,0.081,north-northwest,8.5,Yes
2023/01/27,22:40,0.157,0.141,0.215,0.210,0.211,0.125,0.080,northwest,8.4,Yes
2023/01/27,22:50,0.156,0.142,0.215,0.212,0.211,0.125,0.081,north-northwest,7.6,Yes
2023/01/27,23:00,0.156,0.141,0.215,0.210,0.211,0.124,0.080,northwest,7.6,Yes
2023/01/27,23:10,0.155,0.141,0.215,0.210,0.210,0.123,0.080,north-northwest,8.4,Yes
2023/01/27,23:20,0.155,0.140,0.215,0.210,0.210,0.123,0.079,north-northwest,7.6,No
2023/01/27,23:30,0.154,0.139,0.213,0.208,0.210,0.123,0.079,north-northwest,8.2,No
2023/01/27,23:40,0.154,0.140,0.214,0.209,0.208,0.123,0.079,north,8.1,Yes
2023/01/27,23:50,0.154,0.139,0.213,0.209,0.208,0.122,0.078,north-northwest,7.0,No
